The Dalles, WA

11:44 PM PDT on July 20, 2019 (GMT -0700)
Columbia Gorge Regional-The Dalles

Weather History for KDLS - May, 2019

Change the Weather History Date:

Thursday, May 16, 2019

  Actual Average Record
Temperature  
Mean Temperature 59 °F -  
Max Temperature 66 °F 74 °F 95 °F (2008)
Min Temperature 54 °F 47 °F 38 °F (1974)
Degree Days  
Heating Degree Days 6    
Growing Degree Days 9 (Base 50)    
Moisture  
Dew Point 51 °F    
Average Humidity 76    
Maximum Humidity 93    
Minimum Humidity 60    
Precipitation  
Precipitation 0.03 in - - ()
Sea Level Pressure  
Sea Level Pressure 29.57 in    
Wind  
Wind Speed 5 mph (NW)    
Max Wind Speed 23 mph    
Max Gust Speed 30 mph    
Visibility 10 miles    
Events Rain    
Averages and records for this station are not official NWS values.
T = Trace of Precipitation, MM = Missing Value Source: NWS Daily Summary

Daily Weather History Graph

Daily Weather History Graph

Search for Another Location

Airport or City:

Astronomy

May. 16, 2019 Rise Set
Actual Time 5:32 AM PDT 8:30 PM PDT
Civil Twilight 4:57 AM PDT 9:05 PM PDT
Nautical Twilight 4:13 AM PDT 9:49 PM PDT
Astronomical Twilight 3:20 AM PDT 10:43 PM PDT
Moon 6:05 PM PDT (5/16) 4:46 AM PDT (5/16)
Length of Visible Light 16h 07m
Length of Day
14h 57m
Waxing Gibbous, 95% of the Moon is Illuminated
May 16
Waxing Gibbous
May 18
Full
May 26
Last Quarter
Jun 3
New
Jun 9
First Quarter

Hourly Weather History & Observations

Time (PDT) Temp. Dew Point Humidity Pressure Visibility Wind Dir Wind Speed Gust Speed Precip Events Conditions
12:53 AM 57.0 °F 53.1 °F 87% 29.61 in 10.0 mi Calm Calm - N/A   Overcast
1:42 AM 55.9 °F 53.1 °F 90% 29.59 in 10.0 mi NNW 3.5 mph - N/A   Overcast
1:53 AM 55.9 °F 53.1 °F 90% 29.59 in 10.0 mi NW 3.5 mph - N/A   Overcast
2:53 AM 55.0 °F 52.0 °F 89% 29.58 in 10.0 mi Calm Calm - N/A   Mostly Cloudy
3:22 AM 54.0 °F 52.0 °F 93% 29.57 in 10.0 mi Calm Calm - N/A   Mostly Cloudy
3:53 AM 54.0 °F 52.0 °F 93% 29.57 in 10.0 mi ENE 3.5 mph - N/A   Overcast
4:53 AM 55.9 °F 53.1 °F 90% 29.56 in 9.0 mi Calm Calm - 0.00 in Rain Light Rain
5:53 AM 55.9 °F 53.1 °F 90% 29.56 in 9.0 mi Calm Calm - 0.01 in   Overcast
6:53 AM 55.9 °F 53.1 °F 90% 29.56 in 6.0 mi SE 3.5 mph - 0.01 in   Overcast
7:53 AM 57.9 °F 54.0 °F 87% 29.55 in 9.0 mi Calm Calm - N/A   Overcast
8:23 AM 57.9 °F 54.0 °F 87% 29.56 in 10.0 mi Calm Calm - N/A   Overcast
8:53 AM 57.9 °F 54.0 °F 87% 29.56 in 10.0 mi Calm Calm - N/A   Overcast
9:53 AM 62.1 °F 54.0 °F 75% 29.55 in 10.0 mi Calm Calm - N/A   Mostly Cloudy
10:04 AM 63.0 °F 54.0 °F 72% 29.55 in 10.0 mi Calm Calm - N/A   Mostly Cloudy
10:38 AM 64.0 °F 54.0 °F 70% 29.55 in 10.0 mi Calm Calm - N/A   Overcast
10:53 AM 64.0 °F 55.0 °F 73% 29.55 in 10.0 mi South 3.5 mph - N/A   Overcast
11:05 AM 64.0 °F 54.0 °F 70% 29.55 in 10.0 mi Calm Calm - N/A   Overcast
11:53 AM 64.9 °F 54.0 °F 68% 29.54 in 10.0 mi WNW 3.5 mph - N/A   Scattered Clouds
12:53 PM 62.1 °F 53.1 °F 72% 29.54 in 10.0 mi NW 16.1 mph 20.7 mph N/A   Mostly Cloudy
1:53 PM 62.1 °F 51.1 °F 67% 29.55 in 10.0 mi NW 12.7 mph - N/A   Mostly Cloudy
2:46 PM 61.0 °F 52.0 °F 72% 29.54 in 10.0 mi WSW 16.1 mph - 0.01 in   Overcast
2:53 PM 61.0 °F 51.1 °F 70% 29.55 in 10.0 mi West 16.1 mph 21.9 mph 0.01 in   Mostly Cloudy
3:53 PM 62.1 °F 50.0 °F 65% 29.55 in 10.0 mi NNW 18.4 mph 23.0 mph N/A   Clear
4:53 PM 61.0 °F 48.9 °F 64% 29.55 in 10.0 mi NNW 18.4 mph 24.2 mph N/A   Clear
5:53 PM 62.1 °F 48.0 °F 60% 29.56 in 10.0 mi NW 18.4 mph 26.5 mph N/A   Clear
6:53 PM 60.1 °F 48.0 °F 64% 29.58 in 10.0 mi NW 15.0 mph - N/A   Overcast
7:53 PM 59.0 °F 46.9 °F 64% 29.60 in 10.0 mi NW 17.3 mph 24.2 mph N/A   Overcast
8:53 PM 59.0 °F 46.9 °F 64% 29.62 in 10.0 mi NW 23.0 mph 29.9 mph N/A   Overcast
9:53 PM 57.9 °F 46.0 °F 65% 29.63 in 10.0 mi NW 16.1 mph - N/A   Mostly Cloudy
10:53 PM 57.9 °F 45.0 °F 62% 29.65 in 10.0 mi WNW 16.1 mph - N/A   Overcast
11:53 PM 57.9 °F 45.0 °F 62% 29.65 in 10.0 mi NW 15.0 mph - N/A   Scattered Clouds